Temp
20 20 20 20 20 20 19 19 19 19 19 18 18 18 18 18 19 19 19 19 19 18 18 18 18 18 18 18 19 19 19 19 19 19 19 19 19 19 20 20 19 19 19
20 19 20 20 19 19 19 19 19 19 19 19 19 19 19 18 18 18 18 18 18 18 18 18 18 18 18 18 18 18 19 19 19 20 20 20 19 19 19 20 20 19 19
20 19 19 19 19 19 19 19 19 19 19 19 18 18 18 18 18 18 18 18 18 18 18 18 18 19 19 19 18 18 18 18 19 19 20 20 19 19 19 19 20 19 19
20 20 19 19 19 19 19 19 19 18 18 18 18 18 17 18 18 18 19 18 18 18 18 18 18 18 18 18 18 18 18 18 18 19 20 20 19 20 19 19 19 19 18
19 19 19 19 19 19 19 18 19 18 18 18 18 18 18 18 18 18 18 18 18 18 18 18 18 18 18 18 18 18 18 18 18 19 19 19 19 20 20 20 19 19 18
19 19 18 18 18 19 19 19 19 19 18 19 18 18 18 18 18 18 19 18 18 18 18 18 18 18 18 18 18 17 18 18 18 18 19 19 19 19 20 20 19 20 19
18 18 18 18 18 18 18 19 19 19 19 19 18 18 18 18 18 18 18 18 18 17 17 17 17 17 17 18 18 18 18 18 18 18 19 19 19 19 19 19 19 19 19
19 18 18 18 19 19 19 19 19 19 18 18 18 18 17 16 16 16 16 16 16 16 16 16 16 17 17 17 17 17 18 18 18 18 18 19 19 19 19 19 19 19 18
18 18 18 18 19 19 19 19 18 18 18 17 17 17 16 16 16 15 15 15 15 15 15 15 15 15 15 16 16 17 17 17 17 18 18 19 19 19 19 18 18 18 18
18 18 18 18 18 19 18 18 17 17 16 16 16 16 16 16 15 15 15 15 15 15 14 15 14 15 15 16 16 16 17 17 17 18 18 19 19 18 18 17 17 18 18
18 18 18 17 17 18 17 17 16 16 16 16 16 16 16 16 15 15 15 15 15 15 14 14 14 15 15 15 15 16 16 16 17 17 17 18 17 17 16 16 16 16 16
17 17 18 17 17 17 17 17 16 16 16 16 16 15 15 15 15 15 15 14 14 14 14 14 14 15 15 15 15 15 16 16 16 16 16 16 17 16 16 16 16 16 16
17 17 17 17 17 17 17 16 16 16 15 15 15 15 15 15 15 15 14 14 14 14 14 14 14 14 14 15 15 15 15 16 16 16 15 15 15 15 15 15 15 15 15
16 16 16 17 17 17 16 16 16 15 15 15 15 15 15 15 15 14 14 14 14 13 13 13 13 14 14 14 15 15 15 15 15 15 15 15 15 14 14 14 14 14 14
16 16 16 16 16 16 16 15 15 15 15 15 15 15 15 15 14 14 14 14 13 13 13 13 13 13 14 14 14 15 15 15 15 15 14 13 13 13 13 13 14 14 14
16 15 15 16 16 16 16 15 15 15 15 14 15 15 15 15 14 14 13 13 13 12 12 13 13 13 13 13 14 14 15 15 15 14 13 13 14 13 11 11 12 12 12
16 16 15 15 15 16 15 15 15 14 14 14 14 14 14 14 14 14 13 13 12 12 12 13 13 13 13 13 14 14 14 14 14 14 14 13 12 12 9 9 10 10 10
16 16 15 15 15 15 15 15 14 14 14 14 14 14 14 14 14 13 13 13 12 12 12 13 12 12 12 13 14 13 14 14 13 13 13 12 11 11 10 8 8 8 9
16 15 15 15 15 15 15 15 14 14 14 14 13 13 13 13 13 13 12 12 12 12 12 12 12 12 12 12 13 13 13 13 13 13 12 11 10 10 10 9 9 8 7
16 15 15 15 15 15 14 14 14 14 14 13 13 13 13 13 13 13 12 12 12 12 12 12 12 12 11 11 13 13 13 13 13 12 12 11 11 10 10 9 9 8 7
16 15 15 15 15 15 14 14 14 14 14 14 13 13 13 13 12 12 12 12 12 12 11 11 11 11 11 11 12 13 12 12 12 12 11 11 10 10 10 9 9 8 7
16 15 15 15 15 15 15 14 14 14 14 14 13 13 13 13 13 12 12 12 12 11 11 11 11 10 10 10 10 9 8 11 12 11 12 11 11 10 10 9 8 7 7
16 15 15 15 15 15 14 14 14 14 14 14 14 13 13 13 12 12 12 12 11 11 11 10 10 10 9 10 10 10 8 8 8 11 11 11 11 10 9 8 8 7 6
16 15 15 15 15 15 14 14 14 14 13 14 13 13 13 13 12 12 12 12 11 11 10 10 10 10 9 9 10 10 10 10 7 7 11 11 10 10 9 8 8 7 7
16 16 15 15 15 14 14 14 13 13 13 13 13 13 13 13 12 12 12 12 12 11 10 10 9 9 9 9 9 9 9 10 9 7 6 8 9 9 8 8 8 7 7
16 16 15 15 15 14 14 13 13 13 13 13 13 13 13 13 13 12 12 12 12 11 11 10 9 9 9 9 8 8 8 8 8 8 5 6 6 9 8 8 7 7 6
Height
830 830 832 833 835 836 836 837 837 838 837 837 838 838 837 837 836 836 836 835 835 834 834 833 833 832 832 831 830 830 829 829 829 828 828 828 828 827 827 827 826 825 825
826 831 832 834 835 836 837 837 837 838 838 838 838 838 838 838 837 837 837 836 835 835 834 833 833 832 832 831 830 830 830 829 828 828 828 828 827 827 827 827 826 826 825
826 830 832 834 835 837 838 838 839 839 839 838 838 838 838 838 838 837 836 836 835 835 834 833 833 832 831 830 830 829 829 828 828 827 827 827 827 826 827 826 826 825 825
826 830 833 835 836 838 839 839 839 840 839 839 838 838 838 838 838 837 837 836 835 835 834 833 832 831 831 830 829 829 828 827 827 826 826 826 826 826 826 826 825 824 824
826 830 833 835 836 837 839 839 839 840 840 839 839 839 838 838 838 837 836 836 835 834 833 833 832 831 830 829 829 828 827 826 826 825 825 825 824 825 825 824 824 823 823
826 831 833 835 836 837 838 839 840 840 840 840 840 839 838 838 837 837 836 835 835 834 833 831 830 829 829 828 827 826 826 825 824 824 824 824 823 823 823 822 822 822 821
828 832 834 835 836 837 838 839 839 840 840 840 840 839 839 838 837 837 836 835 833 833 832 830 829 828 827 826 825 825 824 823 823 823 822 822 822 822 821 821 820 820 819
827 832 834 836 836 837 838 839 839 839 840 839 839 839 839 838 838 837 836 835 834 833 832 830 829 827 826 825 824 823 823 822 821 821 820 820 819 819 819 819 818 818 818
828 832 835 837 837 837 837 838 839 839 840 840 840 840 840 839 839 838 837 836 835 834 832 831 830 828 827 825 824 823 822 821 820 819 818 817 817 818 818 817 817 816 816
828 832 835 837 838 838 838 838 840 840 841 841 841 840 840 840 839 839 838 837 836 834 833 831 830 829 827 825 824 822 821 820 819 817 816 814 815 817 816 816 815 814 814
830 833 835 836 838 839 839 840 841 841 841 841 841 841 841 840 840 839 838 837 836 834 833 832 830 828 826 825 823 822 821 819 819 817 816 815 815 815 815 814 814 813 813
830 832 834 837 838 839 839 840 841 842 842 842 842 841 841 841 840 839 838 837 836 834 833 831 830 828 826 824 823 822 821 819 818 817 816 816 815 814 813 813 813 813 812
829 832 833 835 837 838 839 841 841 842 842 842 842 842 841 840 840 840 838 837 835 834 832 831 829 827 825 824 823 822 821 820 818 816 816 816 815 814 814 813 813 813 812
830 832 833 834 836 837 838 840 842 842 842 841 842 842 841 841 840 840 839 838 836 834 832 830 829 827 825 824 823 822 821 820 819 817 816 816 815 814 815 815 814 813 812
831 831 832 833 836 837 837 841 841 842 842 841 842 842 841 841 840 840 839 838 837 835 833 831 829 827 825 824 822 822 821 821 819 817 817 817 816 816 816 816 815 814 813
831 831 831 834 837 836 839 839 841 842 842 843 842 841 842 841 840 840 840 839 838 836 835 832 830 828 826 824 823 822 822 821 819 818 818 818 818 817 817 817 817 816 815
829 829 832 835 836 836 838 839 842 842 843 843 842 842 841 841 841 840 841 839 838 836 835 832 830 829 828 825 824 824 822 821 820 819 820 819 819 818 818 818 817 816 815
827 829 832 835 835 837 838 839 841 842 843 843 842 842 842 841 841 840 841 839 837 836 833 832 831 829 828 827 825 824 823 823 822 821 820 820 820 819 818 817 817 816 815
827 829 832 834 834 836 837 839 842 842 843 843 843 843 843 842 842 841 840 839 837 835 833 832 831 830 829 828 826 825 824 823 823 823 822 821 821 820 819 819 817 816 814
827 830 832 833 833 835 838 839 840 841 842 843 843 843 843 843 842 841 840 839 837 835 833 833 832 831 831 828 826 824 823 824 824 823 822 822 820 820 820 819 818 816 814
827 829 830 831 833 834 837 838 840 840 841 841 842 843 842 842 841 841 840 838 837 834 833 833 832 831 830 828 825 823 823 823 823 823 823 822 821 819 819 819 818 816 814
825 827 828 830 831 833 835 837 838 839 840 840 841 841 841 840 839 840 838 836 836 833 833 833 832 831 830 828 827 826 826 824 821 821 823 823 821 820 819 818 818 816 815
822 824 826 828 829 832 834 836 837 838 839 840 839 839 838 838 838 838 836 834 833 832 832 832 832 832 830 828 827 827 828 828 823 819 820 822 821 819 818 817 817 816 815
819 822 824 826 827 830 832 834 835 837 838 838 837 837 836 836 836 836 833 832 832 831 830 831 831 831 829 828 827 826 826 825 825 824 820 820 820 819 817 816 815 815 814
816 818 822 825 826 828 830 832 834 836 836 835 835 835 836 836 835 833 831 831 830 830 829 829 830 829 828 827 826 825 825 824 823 823 823 819 819 818 816 815 814 814 813
814 816 820 822 824 826 828 831 833 834 834 834 834 834 834 834 832 830 829 828 828 827 826 826 826 826 826 825 825 824 823 824 822 822 822 819 818 815 814 813 812 812 811
Wind_Speed
18 18 16 15 13 11 10 10 10 9 10 10 9 9 10 10 10 10 9 9 9 9 11 8 8 9 8 9 9 9 8 7 7 5 4 3 3 5 6 6 6 6 4
25 19 16 16 13 11 10 10 10 9 9 9 8 8 9 9 9 8 8 8 9 8 8 6 7 8 8 8 8 8 8 8 7 7 6 4 3 3 3 6 6 5 5
26 21 18 15 13 12 11 10 9 8 9 9 10 9 9 9 8 8 8 7 7 8 9 8 8 7 7 8 8 8 8 8 8 8 8 5 7 7 4 6 6 4 4
25 20 16 15 14 13 12 11 9 7 7 6 7 6 8 6 7 7 7 7 7 7 8 8 7 7 7 7 9 9 9 9 9 9 7 4 8 2 5 6 6 4 3
23 20 17 17 15 13 11 9 8 6 5 5 5 5 7 7 7 7 7 7 7 8 8 9 9 9 9 8 8 8 9 10 10 10 7 5 9 7 9 8 8 6 6
23 21 18 15 14 12 10 7 6 5 5 5 6 6 6 7 7 7 8 9 9 9 9 9 10 10 11 10 10 10 10 10 10 11 10 10 10 10 11 9 9 8 7
23 20 17 14 13 10 8 6 5 5 5 5 6 6 7 8 9 10 10 10 10 10 11 11 11 11 12 12 11 11 11 11 11 11 10 9 12 10 11 11 11 10 8
24 20 16 12 10 8 6 5 5 6 6 7 8 9 12 13 13 13 14 14 14 13 13 14 14 14 14 13 12 12 12 12 12 12 12 11 12 12 10 11 11 11 10
21 18 14 11 8 8 7 6 7 8 10 13 14 13 12 14 14 15 17 16 16 15 16 16 16 16 15 16 15 12 13 13 12 12 13 14 13 13 10 9 10 9 11
19 17 14 11 9 9 9 11 12 13 13 13 14 12 11 13 15 14 16 17 16 16 16 15 16 14 14 12 13 12 14 15 15 12 11 10 10 8 7 6 9 12 10
19 17 14 11 8 9 10 11 11 11 10 10 10 9 9 10 12 14 14 16 15 15 15 14 13 14 14 13 13 11 13 14 13 14 7 7 7 9 9 10 12 12 12
20 18 17 13 10 9 9 10 9 8 7 7 7 8 9 8 9 10 12 13 13 14 13 14 13 13 12 15 15 12 13 12 14 12 12 11 11 12 12 11 11 10 11
19 16 16 13 12 11 10 10 7 6 4 6 7 7 7 6 8 10 12 13 14 14 15 14 15 16 13 14 15 13 13 11 12 13 12 12 14 14 14 12 9 9 10
18 16 14 13 11 13 10 7 5 5 5 6 7 7 7 8 9 10 12 13 14 15 15 15 16 15 14 14 14 12 12 9 8 8 10 11 13 15 14 12 13 14 12
18 16 14 12 12 11 11 8 6 5 3 6 6 8 7 8 10 9 10 12 13 14 15 15 16 16 14 15 11 14 10 10 8 6 10 11 13 12 10 8 8 9 11
18 16 14 12 11 11 11 9 6 4 4 4 6 7 8 8 8 9 10 11 12 13 14 14 15 15 15 14 10 13 10 8 7 9 11 10 9 12 14 12 12 13 13
18 16 14 12 11 10 10 8 5 6 3 4 6 6 7 8 8 9 8 10 10 12 13 13 14 14 13 13 9 11 11 12 11 7 7 8 9 10 13 14 14 13 13
18 17 14 13 12 9 9 7 6 5 3 3 3 4 6 7 8 7 7 9 9 10 12 13 14 14 14 16 7 7 7 7 9 10 9 8 8 8 10 11 14 14 14
19 18 16 14 12 9 8 6 5 5 4 2 2 1 4 4 6 5 5 7 8 9 12 14 14 13 13 16 7 8 5 3 3 4 5 9 9 10 9 9 8 9 11
18 17 15 13 12 9 7 6 4 4 5 3 3 3 3 3 5 5 5 6 7 8 10 12 13 11 10 15 9 3 2 1 4 4 5 4 6 6 9 11 11 8 6
18 18 16 16 14 12 9 6 5 4 4 3 4 4 5 4 5 6 5 5 6 8 8 10 12 11 8 15 9 6 2 2 2 2 2 3 3 2 7 11 11 9 9
21 18 17 15 14 12 9 7 5 6 6 5 5 7 6 6 6 7 7 6 6 6 6 7 8 8 5 9 6 2 3 1 2 5 4 3 3 4 7 9 11 11 12
21 21 18 16 14 13 11 9 7 6 6 5 5 5 5 6 8 10 8 8 7 7 7 6 6 6 6 4 5 1 2 2 4 3 6 3 6 5 5 6 8 11 11
24 20 18 17 16 13 12 9 8 6 4 3 3 6 7 9 11 10 9 10 10 9 9 8 7 7 5 5 2 1 3 4 1 3 3 9 4 5 6 6 7 9 10
22 20 19 17 16 15 12 10 9 7 5 4 5 7 9 11 13 13 12 12 12 12 11 11 10 10 8 8 6 5 5 5 7 4 3 4 4 5 8 7 7 7 8
20 20 20 19 18 15 13 11 9 7 5 6 8 9 11 11 11 12 15 16 14 13 13 13 13 13 11 10 10 9 8 5 3 1 1 3 6 7 3 11 9 7 7
Wind_Direction
141 144 141 135 131 127 121 110 100 93 85 77 69 62 58 55 53 53 51 49 44 39 44 43 33 30 26 23 21 21 20 17 10 6 9 21 30 22 20 17 18 13 28
144 142 139 136 133 126 118 110 100 91 81 73 64 57 51 50 46 46 43 39 34 28 25 21 20 9 3 1 0 1 2 1 1 354 348 324 293 296 335 350 339 355 4
141 140 139 139 130 123 115 108 105 101 96 89 80 69 59 55 50 53 54 47 39 33 32 24 5 346 336 335 336 337 338 341 342 344 344 338 331 296 267 322 334 332 355
138 139 135 131 126 127 128 121 113 105 94 84 79 69 58 41 34 27 24 16 13 7 2 356 350 353 353 335 322 319 320 322 324 332 343 344 338 242 239 303 323 321 309
134 136 137 138 136 131 128 123 116 105 91 80 67 52 42 34 27 20 12 4 356 348 344 342 339 336 332 329 329 331 313 307 308 313 317 313 333 262 283 290 307 288 284
130 137 140 139 133 132 131 125 111 96 82 67 55 47 38 26 19 9 2 357 351 345 338 334 326 320 317 316 317 315 309 315 307 306 306 305 319 275 285 287 305 292 284
134 136 139 141 136 133 129 117 98 81 63 56 46 42 37 29 23 15 17 10 6 4 359 352 343 336 327 319 311 307 308 311 308 303 300 302 303 304 261 276 302 300 283
141 140 139 140 137 131 118 96 77 62 53 50 52 53 55 47 47 39 30 27 24 23 20 18 14 12 8 2 353 339 323 313 306 302 297 288 290 294 268 275 292 300 299
136 137 133 130 125 119 108 86 71 65 65 63 65 60 49 43 31 33 29 33 32 32 29 30 25 19 18 18 11 7 5 353 328 308 307 300 284 292 293 278 295 292 289
129 128 127 126 113 103 97 89 80 75 72 67 61 48 42 36 22 32 25 28 30 29 17 20 11 7 13 9 13 14 9 10 12 3 358 355 294 301 312 314 327 325 324
134 134 131 132 122 99 89 86 81 75 72 64 64 61 45 35 32 28 25 21 22 24 20 14 14 14 9 15 10 8 10 10 11 14 22 15 32 35 20 1 352 353 350
143 144 148 146 133 115 100 86 80 77 63 56 68 73 61 45 39 32 22 23 17 17 15 16 18 8 14 14 8 13 13 16 12 30 35 21 17 13 12 4 3 352 354
151 152 153 151 143 137 121 117 117 119 85 62 65 73 71 51 44 37 29 21 15 15 15 18 16 11 18 16 10 11 10 18 14 22 30 25 35 28 22 16 2 11 9
157 156 152 150 144 136 133 127 129 118 91 71 62 73 58 54 49 44 30 18 15 16 17 20 15 17 20 17 12 7 10 12 21 22 37 28 25 40 36 29 28 30 29
162 155 149 143 146 137 131 130 118 109 86 67 67 66 56 54 50 41 30 18 19 20 20 24 20 16 24 15 16 9 19 15 29 48 58 46 47 33 37 28 21 19 16
166 155 148 149 147 135 142 134 130 110 85 68 68 60 54 47 42 38 28 20 23 25 22 25 18 17 18 12 26 23 19 17 38 79 55 29 9 360 46 46 41 36 33
167 156 156 154 150 139 136 131 130 122 89 75 63 49 42 41 37 35 20 22 25 28 20 20 20 21 14 17 31 41 56 72 78 58 41 31 28 20 49 49 46 43 39
165 164 161 161 149 145 142 138 135 137 128 83 61 35 21 27 25 28 17 23 24 23 20 18 16 16 12 5 18 36 63 63 71 65 46 30 40 41 46 48 49 44 42
171 169 167 167 154 155 146 151 157 154 148 113 116 351 359 4 4 7 4 13 16 18 20 15 17 11 7 1 359 22 104 65 49 17 44 44 46 41 31 26 20 32 35
177 177 172 166 156 160 163 157 154 151 171 187 206 262 301 300 331 338 349 357 3 10 16 10 10 17 7 355 350 334 181 157 17 41 55 67 54 29 0 3 359 354 5
180 180 178 170 168 177 175 166 189 189 183 209 218 265 286 284 307 317 322 339 345 4 5 360 2 7 9 6 3 18 64 158 40 107 123 110 128 47 337 345 357 358 355
183 187 182 183 182 185 183 191 183 177 202 218 233 271 284 292 301 299 300 317 318 336 343 349 354 352 351 15 6 342 1 312 278 198 206 240 227 294 319 340 354 358 353
188 189 189 192 189 190 195 197 203 204 227 234 244 260 298 302 301 294 297 302 301 307 315 318 322 332 339 346 6 35 18 272 321 175 212 241 257 283 288 315 341 351 353
201 198 199 197 193 197 202 207 200 201 219 231 278 293 300 298 298 299 312 304 296 288 288 290 290 297 297 308 328 301 271 240 201 328 245 332 254 252 265 285 317 342 346
202 200 202 200 196 203 209 210 207 219 233 263 280 292 294 295 292 297 300 305 302 289 283 280 277 280 275 275 265 290 290 269 262 211 273 307 308 294 266 248 288 316 337
200 197 197 199 203 205 208 210 213 221 237 268 282 289 293 295 300 302 284 281 290 289 278 272 273 273 275 273 272 273 266 268 270 256 257 280 282 298 266 261 256 283 317